Location: Montreal
(45.5000°N, 73.5833°W)
Time: 14:52:49
(UTC-05:00)

OTV 5 (USA 277) - Pass Details

Date: 11 October 2017
Orbit: 404 x 417 km, 43.0° (Epoch: 07 September)

Event Time Altitude Azimuth Distance (km) Brightness Sun altitude
Rises 20:29:28 0° 250° (WSW) 2,351 ? -24.1°
Reaches altitude 10° 20:31:36 10° 245° (WSW) 1,489 ? -24.5°
Enters shadow 20:33:03 22° 234° (SW) 950 ? -24.7°
